Showing default

YUNHAI 3, 54235

Orbit data source: Space-Track

YUNHAI 3, 54235 is a payload satellite owned by SAST (CN) in SSO that was launched on Fri, 11 Nov 2022 UTC via a CHANG ZHENG 6A launch vehicle from the Taiyaun Space Center, China (TSC). Payload-class satellites include a variety of spacecraft equipped with specific instruments for various scientific and technological missions. These include communications satellites like Starlink; space stations such as the ISS; scientific satellites like the Hubble; Earth observation satellites from companies like Planet Labs, Umbra, and HawkEye 360; GPS; miniature CubeSats for education and research; and military/defense satellites.

Loading next visibility...
Identifier
54235, 2022-151A
Orbit
SSO
Country
Flag of CNCN / PRC
Related business
Manufacturer
SAST
Mission
Operational Defense Weather
Bus & Motor
SAST-3000, Unknown motor
Mass
~1,500 kg wet, ~1,300 kg dry
Launch date (UTC)
2022-11-11 (4 years ago)
Launch vehicle
CHANG ZHENG 6A
Launch site
Taiyaun Space Center, China (TSC)
Object type
Payload
Rocket body
Debris
Shape & HBR
Box + 2 Pan, 2.0 m
Radar Cross Section
5.141 m², Large (>1 m²)

Expand to show TLE details & history
Last TLE update: 13 hours ago

TLE from 13 hours ago
0 YUNHAI 3
1 54235U 22151A   26236.94996934  .00000011  00000-0  29466-4 0  9995
2 54235  98.8208 243.3870 0000191  14.6547 345.4631 14.13371662194656
Epoch: 2026-08-24T22:47Z
TLE epoch observation values (Epoch: 2026-08-24T22:47:57.350Z)
Latitude
-0.00005°
Longitude
-71.82628°
Altitude
850.625 km
Speed
7.427 km/s
True Right ascension
16h 13m 32s
True Declination
0° 00' 00"
Sunlit
Object was in daylight at epoch
Visualization orbit readout
Latitude
Unknown
Longitude
Unknown
Altitude
Unknown
Speed
Unknown
Apparent Right ascension
Unknown
Apparent Declination
Unknown
Sunlit
N/A
Visualization observer readout
Local Sidereal Time
02:51:34
Azimuth
Unknown
Elevation
Unknown
Doppler factor
Unknown
Orbital elements
Apogee altitude
845.168 km
Perigee altitude
844.892 km
Semi-major axis
7,223.167 km
Eccentricity
0.00002
Inclination
98.8208°
RAAN
243.387°
Arg. of periapsis
14.6547°
True anomaly
345.46255°
Mean anomaly
345.4631°
Eccentric anomaly
345.46283°
Mean motion
3.53551 °/min
Orbital period
101.82 mins
BSTAR
0.000029466
Loading maneuver chart data...
Computing Atmospheric mass density...
Loading historical data...
Loading historical data...
Loading historical data...
Loading historical data...
Loading historical data...
Loading historical data...
Loading historical data...

Documentation

Showing up to 5 results
|